This is the latest recevied weather packets stored in our database for station/object KN1OBI-13. If no packets are shown the sender has not sent any weather packets the latest 10 day(s).
| Time | Temp. | Humidity | Pressure | Rain* | Wind** | Luminosity | Snow |
|---|---|---|---|---|---|---|---|
| 1788608793 | 17.78° C | 83% | 989.2 hPa | 0 mm | - | - | - |
| 1788608193 | 17.22° C | 84% | 989.2 hPa | 0 mm | - | - | - |
| 1788607593 | 16.67° C | 84% | 989 hPa | 0 mm | - | - | - |
| 1788606993 | 16.67° C | 85% | 988.8 hPa | 0 mm | - | - | - |
| 1788606393 | 16.67° C | 85% | 989 hPa | 0 mm | - | - | - |
| 1788605793 | 16.11° C | 85% | 988.9 hPa | 0 mm | - | - | - |
| 1788605193 | 16.11° C | 86% | 988.8 hPa | 0 mm | - | - | - |
| 1788604593 | 16.11° C | 86% | 988.7 hPa | 0 mm | - | - | - |
| 1788603993 | 16.11° C | 87% | 988.7 hPa | 0 mm | - | - | - |
| 1788603393 | 15.56° C | 87% | 988.7 hPa | 0 mm | - | - | - |
| 1788602793 | 15.56° C | 87% | 988.9 hPa | 0 mm | - | - | - |
| 1788602193 | 15.56° C | 87% | 988.9 hPa | 0 mm | - | - | - |
| 1788601593 | 15.56° C | 87% | 988.7 hPa | 0 mm | - | - | - |
| 1788600993 | 15.56° C | 87% | 988.8 hPa | 0 mm | - | - | - |
| 1788600393 | 15.56° C | 86% | 988.8 hPa | 0 mm | - | - | - |
| 1788599793 | 15.56° C | 86% | 988.8 hPa | 0 mm | - | - | - |
| 1788599193 | 15.56° C | 85% | 988.6 hPa | 0 mm | - | - | - |
| 1788598593 | 16.11° C | 85% | 988.8 hPa | 0 mm | - | - | - |
| 1788597993 | 16.11° C | 84% | 988.8 hPa | 0 mm | - | - | - |
| 1788597393 | 16.67° C | 84% | 988.4 hPa | 0 mm | - | - | - |
| 1788596793 | 16.67° C | 84% | 988.6 hPa | 0 mm | - | - | - |
| 1788596193 | 16.67° C | 84% | 988.6 hPa | 0 mm | - | - | - |
| 1788595593 | 16.67° C | 84% | 988.5 hPa | 0 mm | - | - | - |
| 1788594993 | 16.67° C | 84% | 988.7 hPa | 0 mm | - | - | - |
| 1788594393 | 16.11° C | 84% | 988.7 hPa | 0 mm | - | - | - |
* Rain latest hour (hover to see other rain measurements)
** Current wind speed in m/s (hover to see current wind gust speed)